Tracking 27380 objects as of 6-Jun-2023
HD Live streaming from Space Station
objects crossing your sky now

SL-14 DEB

Track SL-14 DEB now!
10-day predictions


NORAD ID: 19232
Int'l Code: 1978-100AB
Perigee: 1,682.4 km
Apogee: 1,991.4 km
Inclination: 82.3 °
Period: 123.3 minutes
Semi major axis: 8207 km
RCS: 0.0463 m2 (small)
Launch date: October 26, 1978
Source: Commonwealth of Independent States (former USSR) (CIS)
Launch site: PLESETSK MISSILE AND SPACE COMPLEX (PKMTR)

Note: This is SATELLITE DEBRIS
Your satellite tracking list
Your tracking list is empty




NASA's NSSDC Master Catalog

Two Line Element Set (TLE):
1 19232U 78100AB  23156.48254302  .00000016  00000-0  15882-3 0  9992
2 19232  82.3313 156.0140 0188201 250.9233 269.8876 11.67492166493779
Source of the keplerian elements: AFSPC